Volver al catálogo

STARLINK-36422

ActivoComunicacionesVLEO
NORAD 67344·PAYLOAD·🇺🇸 United States

Lanzado Jan 9, 2026 desde Cape Canaveral Space Force Station

Loading…

Próximos Pases (próximas 24 horas)

TLE

ActualizadoSource: CelesTrak SupGP

Época: Sep 14, 2026, 23:18 UTC

1 67344C 26003L   26257.97131944  .00017516  00000+0  63442-3 0  2573
2 67344  42.9998 237.8131 0001345 267.0823 157.5069 15.27570069    19

Sigue STARLINK-36422 en tiempo real con AllMySat

Download on the App Store